QPF
0.00 0.00 0.00 0.00 0.10 0.01 0.00 0.00 0.00 0.01 0.00 0.00 0.00 0.00 0.00 0.00 0.00 0.00 0.00 0.00 0.00 0.00 0.00 0.00 0.00 0.00 0.00 0.00 0.00 0.00 0.00 0.00 0.00 0.00 0.01 0.00 0.00 0.02 0.03 0.02 0.00 0.01 0.05 0.02 0.02 0.02 0.01 0.00 0.00
0.00 0.00 0.00 0.01 0.05 0.00 0.00 0.00 0.00 0.00 0.00 0.00 0.01 0.00 0.00 0.00 0.00 0.00 0.00 0.00 0.00 0.00 0.00 0.00 0.00 0.00 0.00 0.00 0.00 0.00 0.00 0.00 0.04 0.02 0.00 0.00 0.00 0.00 0.01 0.04 0.02 0.04 0.09 0.09 0.09 0.06 0.05 0.02 0.00
0.00 0.00 0.05 0.06 0.00 0.00 0.00 0.00 0.00 0.00 0.00 0.00 0.00 0.00 0.00 0.00 0.00 0.00 0.00 0.00 0.00 0.00 0.00 0.00 0.00 0.00 0.00 0.00 0.00 0.00 0.00 0.01 0.01 0.00 0.01 0.02 0.01 0.00 0.01 0.02 0.00 0.01 0.06 0.03 0.03 0.04 0.05 0.00 0.01
0.00 0.00 0.00 0.00 0.00 0.00 0.00 0.00 0.00 0.00 0.00 0.00 0.00 0.00 0.00 0.00 0.00 0.00 0.00 0.00 0.00 0.00 0.00 0.00 0.00 0.00 0.00 0.00 0.00 0.00 0.00 0.00 0.00 0.00 0.01 0.02 0.01 0.00 0.03 0.02 0.00 0.00 0.02 0.03 0.01 0.01 0.04 0.00 0.00
0.00 0.00 0.00 0.00 0.00 0.00 0.00 0.00 0.00 0.00 0.00 0.00 0.00 0.00 0.00 0.00 0.00 0.00 0.00 0.00 0.00 0.00 0.00 0.00 0.00 0.00 0.00 0.00 0.00 0.00 0.00 0.00 0.00 0.01 0.02 0.00 0.00 0.00 0.00 0.00 0.01 0.00 0.00 0.01 0.01 0.01 0.00 0.00 0.00
0.00 0.00 0.00 0.00 0.00 0.00 0.00 0.00 0.00 0.00 0.00 0.00 0.00 0.00 0.00 0.00 0.00 0.00 0.00 0.00 0.00 0.00 0.00 0.00 0.00 0.00 0.00 0.00 0.00 0.00 0.00 0.00 0.01 0.02 0.00 0.00 0.00 0.00 0.00 0.00 0.00 0.00 0.00 0.00 0.00 0.00 0.00 0.00 0.00
0.00 0.00 0.00 0.00 0.00 0.00 0.00 0.00 0.00 0.00 0.00 0.00 0.00 0.00 0.00 0.00 0.00 0.00 0.00 0.00 0.00 0.00 0.00 0.00 0.00 0.00 0.00 0.00 0.00 0.00 0.00 0.00 0.00 0.00 0.00 0.00 0.00 0.00 0.00 0.00 0.00 0.00 0.00 0.00 0.00 0.00 0.00 0.00 0.00
0.00 0.00 0.00 0.00 0.00 0.00 0.00 0.00 0.00 0.00 0.00 0.00 0.00 0.00 0.00 0.00 0.00 0.00 0.00 0.00 0.00 0.00 0.00 0.00 0.00 0.00 0.00 0.00 0.00 0.00 0.00 0.00 0.00 0.00 0.00 0.00 0.00 0.01 0.00 0.00 0.00 0.00 0.00 0.00 0.00 0.00 0.00 0.00 0.00
0.00 0.00 0.00 0.00 0.00 0.00 0.00 0.00 0.00 0.00 0.00 0.00 0.00 0.00 0.00 0.00 0.00 0.00 0.00 0.00 0.00 0.00 0.00 0.00 0.00 0.00 0.00 0.00 0.00 0.00 0.00 0.00 0.00 0.00 0.01 0.03 0.03 0.06 0.04 0.00 0.00 0.00 0.00 0.00 0.00 0.00 0.00 0.00 0.00
0.00 0.00 0.00 0.01 0.00 0.00 0.00 0.00 0.00 0.00 0.00 0.00 0.00 0.00 0.00 0.00 0.00 0.00 0.00 0.00 0.00 0.00 0.00 0.00 0.00 0.00 0.00 0.00 0.00 0.00 0.00 0.00 0.00 0.01 0.01 0.04 0.05 0.05 0.03 0.00 0.00 0.00 0.00 0.00 0.00 0.00 0.00 0.00 0.00
0.00 0.00 0.00 0.00 0.00 0.00 0.00 0.00 0.00 0.00 0.00 0.00 0.00 0.00 0.00 0.00 0.00 0.00 0.00 0.00 0.00 0.00 0.00 0.00 0.03 0.01 0.00 0.00 0.00 0.00 0.00 0.00 0.01 0.02 0.01 0.01 0.02 0.01 0.01 0.01 0.03 0.03 0.11 0.05 0.00 0.00 0.15 0.30 0.07
0.00 0.00 0.00 0.00 0.00 0.00 0.00 0.00 0.00 0.00 0.00 0.00 0.00 0.00 0.00 0.00 0.00 0.00 0.00 0.00 0.00 0.00 0.00 0.00 0.00 0.00 0.00 0.00 0.00 0.00 0.00 0.00 0.00 0.00 0.00 0.02 0.09 0.03 0.03 0.01 0.04 0.06 0.10 0.16 0.13 0.09 0.20 0.22 0.17
0.00 0.00 0.00 0.00 0.00 0.00 0.00 0.00 0.00 0.00 0.00 0.00 0.00 0.00 0.00 0.00 0.00 0.00 0.00 0.00 0.00 0.00 0.00 0.00 0.00 0.00 0.00 0.00 0.00 0.00 0.00 0.00 0.00 0.00 0.00 0.00 0.02 0.01 0.01 0.03 0.03 0.02 0.01 0.03 0.03 0.07 0.12 0.13 0.07
0.00 0.00 0.00 0.00 0.00 0.00 0.00 0.00 0.03 0.00 0.00 0.00 0.00 0.00 0.00 0.00 0.00 0.00 0.00 0.00 0.00 0.00 0.00 0.00 0.00 0.00 0.00 0.00 0.00 0.00 0.00 0.01 0.01 0.00 0.00 0.00 0.00 0.01 0.04 0.03 0.01 0.01 0.01 0.03 0.01 0.01 0.01 0.00 0.00
0.00 0.00 0.00 0.00 0.00 0.01 0.00 0.01 0.05 0.00 0.00 0.00 0.00 0.00 0.00 0.00 0.00 0.00 0.00 0.00 0.00 0.00 0.00 0.00 0.00 0.00 0.00 0.00 0.00 0.00 0.01 0.01 0.00 0.00 0.00 0.00 0.00 0.04 0.05 0.02 0.02 0.02 0.00 0.00 0.00 0.00 0.00 0.00 0.00
0.00 0.01 0.01 0.00 0.00 0.01 0.00 0.03 0.02 0.00 0.00 0.00 0.00 0.00 0.00 0.00 0.00 0.00 0.00 0.00 0.00 0.00 0.00 0.00 0.00 0.00 0.00 0.00 0.00 0.00 0.00 0.01 0.00 0.00 0.00 0.00 0.00 0.01 0.12 0.05 0.03 0.01 0.00 0.00 0.00 0.00 0.00 0.00 0.00
0.00 0.00 0.01 0.01 0.00 0.00 0.00 0.07 0.00 0.00 0.00 0.00 0.00 0.00 0.00 0.00 0.00 0.00 0.00 0.00 0.00 0.00 0.00 0.00 0.00 0.00 0.00 0.00 0.00 0.00 0.00 0.00 0.00 0.00 0.00 0.00 0.00 0.00 0.05 0.09 0.11 0.01 0.00 0.00 0.00 0.00 0.00 0.00 0.00
0.00 0.00 0.00 0.00 0.00 0.00 0.00 0.01 0.00 0.00 0.00 0.00 0.00 0.00 0.00 0.00 0.00 0.00 0.00 0.00 0.00 0.00 0.00 0.00 0.00 0.00 0.00 0.00 0.00 0.00 0.00 0.00 0.00 0.00 0.00 0.01 0.00 0.00 0.02 0.06 0.03 0.00 0.02 0.00 0.00 0.00 0.00 0.00 0.00
0.00 0.00 0.01 0.00 0.00 0.00 0.00 0.00 0.00 0.00 0.00 0.00 0.00 0.00 0.00 0.00 0.00 0.00 0.00 0.00 0.00 0.00 0.00 0.00 0.00 0.00 0.00 0.00 0.00 0.00 0.00 0.00 0.00 0.00 0.00 0.01 0.00 0.00 0.02 0.05 0.01 0.01 0.00 0.00 0.00 0.00 0.00 0.00 0.00
0.00 0.00 0.00 0.00 0.00 0.00 0.00 0.00 0.00 0.00 0.00 0.00 0.00 0.00 0.00 0.00 0.00 0.00 0.00 0.00 0.00 0.00 0.00 0.00 0.00 0.00 0.00 0.00 0.00 0.00 0.00 0.00 0.00 0.00 0.00 0.00 0.00 0.00 0.01 0.05 0.09 0.01 0.00 0.00 0.00 0.00 0.00 0.00 0.00
0.00 0.00 0.00 0.00 0.00 0.00 0.00 0.00 0.00 0.00 0.00 0.00 0.00 0.00 0.00 0.00 0.00 0.00 0.00 0.00 0.00 0.00 0.00 0.00 0.00 0.00 0.00 0.00 0.00 0.00 0.00 0.00 0.00 0.00 0.00 0.00 0.00 0.00 0.00 0.02 0.05 0.00 0.00 0.00 0.00 0.00 0.00 0.00 0.00
0.00 0.00 0.00 0.00 0.00 0.00 0.00 0.00 0.00 0.00 0.00 0.00 0.00 0.00 0.00 0.00 0.00 0.00 0.00 0.00 0.00 0.00 0.00 0.00 0.00 0.00 0.00 0.00 0.00 0.00 0.00 0.00 0.03 0.03 0.00 0.01 0.00 0.00 0.01 0.01 0.01 0.00 0.00 0.00 0.00 0.00 0.00 0.00 0.00
0.00 0.00 0.00 0.00 0.00 0.00 0.00 0.00 0.00 0.00 0.00 0.00 0.00 0.00 0.00 0.00 0.00 0.00 0.00 0.00 0.00 0.00 0.00 0.00 0.00 0.00 0.00 0.00 0.00 0.00 0.00 0.00 0.07 0.10 0.03 0.04 0.06 0.02 0.05 0.04 0.00 0.00 0.00 0.00 0.00 0.00 0.00 0.00 0.00
0.00 0.00 0.00 0.00 0.00 0.00 0.00 0.00 0.00 0.00 0.00 0.00 0.00 0.00 0.00 0.00 0.00 0.00 0.00 0.00 0.00 0.00 0.00 0.00 0.00 0.00 0.00 0.00 0.00 0.01 0.02 0.00 0.03 0.16 0.05 0.02 0.00 0.04 0.06 0.02 0.00 0.00 0.00 0.00 0.00 0.00 0.00 0.00 0.00
0.00 0.00 0.00 0.00 0.00 0.00 0.00 0.00 0.00 0.00 0.00 0.00 0.00 0.00 0.00 0.00 0.00 0.00 0.00 0.00 0.00 0.00 0.00 0.00 0.00 0.00 0.00 0.00 0.00 0.00 0.00 0.00 0.03 0.09 0.03 0.00 0.00 0.00 0.01 0.02 0.00 0.00 0.00 0.00 0.00 0.00 0.00 0.00 0.00
0.00 0.00 0.00 0.00 0.00 0.00 0.00 0.00 0.00 0.00 0.00 0.00 0.00 0.00 0.00 0.00 0.00 0.00 0.00 0.00 0.00 0.00 0.00 0.00 0.00 0.00 0.00 0.00 0.00 0.00 0.00 0.00 0.00 0.00 0.00 0.00 0.00 0.00 0.06 0.06 0.00 0.00 0.00 0.00 0.00 0.00 0.00 0.00 0.00
0.00 0.00 0.00 0.00 0.00 0.00 0.00 0.00 0.00 0.00 0.00 0.00 0.00 0.00 0.00 0.00 0.00 0.00 0.00 0.00 0.00 0.00 0.00 0.00 0.00 0.00 0.00 0.00 0.00 0.00 0.00 0.00 0.00 0.00 0.00 0.00 0.00 0.01 0.03 0.05 0.01 0.00 0.00 0.00 0.00 0.00 0.00 0.00 0.00
0.00 0.00 0.00 0.00 0.00 0.00 0.00 0.00 0.00 0.00 0.00 0.00 0.00 0.00 0.00 0.00 0.00 0.00 0.00 0.00 0.00 0.00 0.00 0.00 0.00 0.00 0.00 0.00 0.00 0.00 0.00 0.00 0.00 0.01 0.00 0.00 0.01 0.02 0.07 0.05 0.00 0.00 0.00 0.00 0.00 0.00 0.00 0.00 0.00
0.00 0.00 0.00 0.00 0.00 0.00 0.00 0.00 0.00 0.00 0.00 0.00 0.00 0.00 0.00 0.00 0.00 0.00 0.00 0.00 0.00 0.00 0.00 0.00 0.00 0.00 0.00 0.00 0.00 0.00 0.00 0.00 0.00 0.00 0.00 0.00 0.02 0.04 0.05 0.04 0.00 0.00 0.00 0.00 0.00 0.00 0.00 0.00 0.00
0.00 0.00 0.00 0.00 0.00 0.00 0.00 0.00 0.00 0.00 0.00 0.00 0.00 0.00 0.00 0.00 0.00 0.00 0.00 0.00 0.00 0.00 0.00 0.00 0.00 0.00 0.00 0.00 0.00 0.00 0.00 0.00 0.00 0.00 0.00 0.00 0.00 0.02 0.08 0.02 0.00 0.00 0.04 0.03 0.00 0.00 0.00 0.00 0.00
MSLP
1005.08 1004.37 1004.47 1003.40 1003.71 1001.69 1001.26 1000.94 1001.05 1000.67 1001.10 1001.67 1002.31 1002.83 1004.10 1005.06 1005.35 1008.84 1010.55 1011.43 1011.96 1012.76 1013.55 1014.00 1014.39 1014.39 1014.52 1014.83 1014.97 1015.11 1015.18 1015.50 1015.69 1015.98 1015.97 1016.08 1016.20 1016.20 1016.32 1016.54 1016.62 1016.64 1016.83 1017.02 1017.10 1017.26 1017.36 1017.36 1017.30
1004.14 1003.14 1003.23 1002.71 1002.01 1000.59 1001.15 1001.29 1000.93 1001.03 1001.62 1002.08 1003.24 1003.39 1004.27 1005.80 1006.83 1008.75 1010.39 1011.59 1012.26 1012.89 1013.39 1014.18 1014.53 1014.69 1014.91 1015.09 1015.34 1015.33 1015.63 1015.95 1016.18 1016.26 1016.30 1016.33 1016.45 1016.48 1016.40 1016.99 1016.85 1016.81 1016.97 1017.22 1017.17 1017.30 1017.46 1017.46 1017.37
1004.23 1002.87 1002.68 1001.08 1000.23 1000.49 1001.08 1001.27 1001.41 1001.47 1001.54 1002.11 1003.06 1003.94 1005.07 1006.62 1007.70 1008.74 1010.57 1011.34 1012.07 1012.66 1013.38 1014.45 1014.67 1014.80 1015.16 1015.27 1015.42 1015.70 1016.09 1016.20 1016.39 1016.47 1016.66 1016.56 1016.70 1016.63 1016.57 1017.00 1017.09 1017.02 1017.08 1017.35 1017.39 1017.48 1017.58 1017.58 1017.40
1001.86 1001.37 1000.90 999.36 1000.10 1000.51 1000.64 1001.05 1001.34 1001.71 1002.14 1002.60 1003.87 1004.99 1005.86 1006.44 1007.61 1009.09 1010.26 1011.11 1011.87 1012.88 1013.68 1014.62 1014.82 1015.12 1015.25 1015.52 1015.78 1015.86 1016.16 1016.38 1016.44 1016.61 1016.73 1016.69 1016.74 1016.87 1016.76 1017.24 1017.25 1017.18 1017.29 1017.34 1017.44 1017.60 1017.76 1017.72 1017.47
1000.79 1000.77 999.32 999.50 1000.07 1000.63 1000.69 1000.65 1001.04 1001.62 1002.11 1003.09 1004.37 1005.68 1006.28 1007.09 1007.95 1008.36 1009.32 1010.28 1011.34 1012.83 1014.03 1014.73 1014.98 1015.20 1015.48 1015.56 1015.89 1016.05 1016.26 1016.42 1016.55 1016.77 1016.81 1016.74 1016.99 1016.94 1016.91 1017.29 1017.32 1017.16 1017.26 1017.46 1017.52 1017.65 1017.77 1017.89 1017.74
999.59 1000.40 999.34 999.55 1000.25 1000.48 1000.45 1001.03 1001.51 1002.18 1002.91 1004.03 1005.10 1005.77 1006.93 1007.87 1007.91 1007.91 1008.52 1009.98 1011.43 1012.80 1013.72 1014.59 1015.10 1015.41 1015.57 1015.68 1015.83 1016.27 1016.27 1016.37 1016.71 1016.74 1016.90 1016.83 1017.24 1017.05 1017.16 1017.21 1017.36 1017.40 1017.35 1017.43 1017.57 1017.75 1017.84 1017.88 1017.86
1002.64 1000.32 999.48 999.62 1000.52 1000.77 1000.86 1000.92 1001.36 1002.27 1003.46 1004.15 1004.90 1006.03 1007.25 1007.98 1008.25 1008.10 1008.42 1009.64 1010.48 1011.70 1013.33 1014.41 1014.98 1015.48 1015.66 1015.81 1015.95 1016.32 1016.33 1016.53 1016.73 1016.67 1016.80 1016.95 1017.14 1017.08 1017.22 1017.21 1017.31 1017.38 1017.35 1017.37 1017.54 1017.71 1017.87 1017.79 1017.84
1002.70 1000.06 999.63 999.49 1000.28 1000.87 1001.11 1001.15 1001.50 1002.16 1003.01 1003.52 1004.56 1005.94 1006.89 1007.72 1008.10 1008.01 1008.51 1009.24 1010.27 1011.72 1012.99 1013.96 1014.79 1015.07 1015.36 1015.77 1016.00 1016.23 1016.46 1016.52 1016.49 1016.47 1016.91 1016.97 1016.95 1017.06 1017.11 1017.17 1017.28 1017.34 1017.39 1017.39 1017.49 1017.60 1017.67 1017.70 1017.55
1002.40 1001.20 999.88 1000.38 999.99 1000.86 1000.96 1001.72 1002.35 1002.67 1002.85 1003.28 1003.94 1005.45 1006.62 1007.65 1007.95 1007.98 1008.49 1009.24 1010.80 1011.43 1012.45 1013.20 1014.10 1014.52 1014.61 1015.02 1015.74 1016.19 1016.40 1016.29 1016.27 1016.51 1016.77 1016.84 1016.73 1016.84 1017.05 1016.93 1017.10 1017.22 1017.29 1017.27 1017.25 1017.33 1017.43 1017.46 1017.35
1001.40 999.84 999.68 999.37 999.39 1000.12 1000.71 1001.40 1001.82 1002.26 1003.10 1003.42 1003.98 1005.47 1006.85 1007.56 1007.77 1007.95 1008.50 1009.34 1009.96 1011.02 1011.60 1012.20 1012.71 1013.17 1013.77 1014.44 1015.61 1015.80 1015.94 1016.02 1016.23 1016.16 1016.33 1016.48 1016.43 1016.63 1016.64 1016.69 1016.91 1016.91 1016.93 1016.94 1016.95 1016.96 1017.06 1017.08 1017.08
998.20 998.65 998.88 999.12 999.25 999.62 1000.09 1000.28 1000.77 1001.71 1002.36 1003.47 1004.58 1005.66 1006.89 1007.47 1007.90 1008.19 1008.62 1009.57 1010.11 1010.88 1011.11 1011.95 1012.85 1012.95 1013.28 1014.55 1014.86 1015.01 1015.15 1015.36 1015.72 1015.78 1015.96 1015.97 1015.94 1016.28 1016.41 1016.40 1016.66 1016.77 1017.02 1016.91 1016.71 1016.68 1016.90 1017.40 1017.32
998.03 998.09 998.15 998.92 999.24 999.39 999.96 1000.14 1001.16 1001.81 1002.49 1003.41 1004.80 1005.80 1006.73 1007.33 1007.71 1007.98 1008.25 1009.25 1010.24 1010.92 1011.06 1011.71 1012.41 1012.81 1013.15 1013.85 1014.04 1014.31 1014.53 1015.06 1015.22 1015.40 1015.52 1015.88 1016.31 1016.07 1016.08 1016.06 1016.28 1016.20 1016.57 1016.54 1016.56 1016.38 1016.72 1017.05 1017.25
997.81 997.82 997.91 998.94 999.67 1000.19 1000.60 1000.96 1001.73 1002.32 1002.93 1003.96 1005.11 1006.06 1006.70 1007.07 1007.43 1007.80 1007.94 1008.89 1010.06 1010.73 1010.97 1011.82 1012.47 1012.99 1013.48 1013.87 1013.89 1013.60 1014.35 1014.91 1014.91 1014.94 1015.12 1015.41 1015.85 1015.81 1015.72 1015.68 1015.86 1015.96 1016.10 1016.22 1016.10 1016.19 1016.22 1016.20 1016.06
998.39 999.53 999.01 1000.16 999.85 1001.01 1002.07 1002.59 1002.86 1002.85 1003.45 1004.30 1005.24 1005.92 1006.37 1006.70 1006.99 1007.44 1007.83 1008.69 1009.77 1010.49 1010.99 1011.45 1012.39 1013.32 1013.63 1014.09 1013.82 1013.78 1014.36 1014.58 1014.69 1014.81 1014.99 1015.15 1015.35 1015.52 1015.55 1015.55 1015.61 1015.81 1015.82 1015.86 1015.85 1015.91 1015.76 1015.68 1015.40
999.86 1001.01 1001.86 1002.06 1003.41 1006.71 1003.15 1003.79 1003.37 1003.89 1003.70 1004.41 1005.11 1005.63 1005.99 1006.23 1006.61 1007.14 1007.61 1008.46 1009.43 1010.20 1010.82 1011.38 1012.26 1013.25 1013.86 1014.10 1014.15 1013.93 1014.14 1014.07 1014.26 1014.51 1014.67 1014.89 1015.04 1015.48 1015.55 1015.54 1015.79 1016.03 1015.70 1015.63 1015.58 1015.58 1015.66 1015.49 1015.10
1001.20 1003.40 1006.46 1003.70 1003.30 1007.54 1004.20 1006.68 1004.13 1003.90 1003.64 1004.25 1004.74 1005.23 1005.64 1005.93 1006.26 1006.91 1007.42 1008.24 1009.24 1009.94 1010.60 1011.40 1011.82 1012.80 1013.65 1013.94 1014.16 1013.87 1013.78 1014.19 1013.76 1014.14 1014.22 1014.66 1015.00 1015.43 1015.80 1015.96 1016.06 1015.63 1015.41 1015.23 1015.21 1015.54 1015.42 1015.60 1015.36
1001.26 1004.30 1003.90 1003.86 1002.40 1003.26 1002.62 1007.65 1004.96 1004.20 1003.15 1003.70 1004.27 1004.78 1005.26 1005.64 1006.08 1006.79 1007.27 1008.01 1008.94 1009.72 1010.47 1011.21 1011.67 1012.28 1013.27 1013.67 1013.86 1013.91 1013.56 1013.67 1013.61 1013.53 1013.89 1014.50 1014.84 1015.16 1015.42 1015.91 1015.94 1015.60 1015.26 1015.23 1015.36 1015.64 1015.68 1015.59 1015.61
1000.71 1003.58 1004.21 1002.61 1000.65 1000.42 1001.93 1003.59 1003.05 1002.48 1002.24 1002.80 1003.50 1004.23 1004.81 1005.30 1005.79 1006.55 1007.12 1007.76 1008.58 1009.44 1010.46 1011.15 1011.57 1011.95 1012.84 1013.58 1013.99 1014.04 1013.85 1013.84 1013.52 1013.93 1014.38 1015.15 1014.56 1014.94 1015.26 1015.58 1015.61 1015.41 1015.87 1015.77 1015.77 1015.86 1016.02 1015.94 1015.86
998.32 1001.55 1003.07 1001.18 1000.32 1000.11 1000.17 1000.62 1000.42 1000.96 1001.17 1001.49 1002.27 1003.31 1004.08 1004.69 1005.25 1006.13 1006.86 1007.36 1008.31 1009.30 1010.36 1011.16 1011.54 1011.97 1012.75 1013.57 1014.01 1014.04 1013.90 1013.66 1013.50 1013.89 1014.33 1014.35 1014.31 1015.03 1015.42 1015.55 1015.53 1015.27 1015.74 1015.88 1016.09 1016.25 1016.25 1016.00 1015.90
997.60 998.35 999.03 1001.29 1001.49 1000.02 999.70 999.76 999.73 1000.89 1000.60 1000.38 1000.54 1001.73 1002.89 1003.86 1004.52 1005.41 1006.29 1006.91 1007.92 1009.03 1010.18 1011.02 1011.48 1012.00 1012.44 1013.04 1013.40 1013.42 1013.22 1013.17 1012.97 1013.23 1013.46 1013.73 1014.47 1015.01 1015.32 1015.48 1015.80 1015.88 1015.76 1016.08 1016.39 1016.49 1016.49 1016.29 1016.18
997.15 997.47 998.33 1000.66 1003.05 1000.84 1000.07 999.16 1000.37 1001.01 1000.72 999.86 999.70 1000.41 1001.52 1002.68 1003.69 1004.55 1005.57 1006.31 1007.16 1008.36 1009.46 1010.56 1011.19 1011.82 1012.32 1012.57 1012.88 1012.92 1012.84 1013.09 1013.97 1014.44 1014.37 1013.90 1013.97 1014.58 1015.18 1015.32 1015.70 1015.86 1015.99 1016.40 1016.55 1016.70 1016.67 1016.70 1016.43
996.62 996.83 997.77 999.49 1000.13 999.52 998.78 998.38 998.54 999.73 998.96 999.16 999.19 999.44 1000.19 1001.47 1002.66 1003.44 1004.45 1005.65 1006.41 1007.52 1008.72 1009.73 1010.84 1011.47 1012.06 1012.36 1012.49 1012.59 1012.73 1014.20 1015.30 1015.82 1014.51 1014.48 1013.75 1014.19 1014.87 1015.26 1015.56 1015.97 1016.26 1016.47 1016.64 1016.96 1017.07 1016.78 1016.78
996.66 996.76 997.16 997.57 997.76 997.64 997.55 998.83 998.10 998.52 997.69 998.71 998.23 998.66 999.19 1000.06 1001.18 1002.38 1003.28 1004.50 1005.56 1006.62 1007.79 1009.02 1010.19 1011.08 1011.67 1012.10 1012.24 1012.22 1012.51 1013.87 1015.04 1014.89 1014.36 1014.27 1013.78 1014.01 1014.64 1015.19 1015.32 1016.06 1016.39 1016.66 1016.84 1017.09 1017.27 1017.16 1017.17
996.93 997.29 997.31 997.69 997.85 997.61 997.12 997.68 998.01 998.23 997.47 997.24 997.21 997.81 998.12 998.92 1000.03 1001.31 1002.37 1003.43 1004.61 1005.76 1006.96 1008.25 1009.59 1010.62 1011.35 1011.81 1012.05 1012.21 1012.11 1012.85 1014.06 1015.94 1015.26 1014.30 1013.56 1014.39 1014.86 1015.18 1015.28 1015.79 1016.43 1016.64 1016.96 1017.25 1017.44 1017.52 1017.54
997.23 997.28 997.11 997.17 997.28 996.70 997.07 996.58 996.76 997.10 996.56 996.71 997.04 997.20 997.56 998.01 999.04 1000.47 1001.74 1002.70 1004.00 1005.15 1006.33 1007.51 1008.78 1009.94 1010.79 1011.26 1011.70 1011.93 1011.98 1011.65 1013.12 1014.01 1014.04 1014.01 1013.79 1014.68 1015.16 1015.43 1015.73 1015.97 1016.18 1016.38 1016.83 1017.23 1017.54 1017.82 1017.86
996.71 996.84 996.58 996.62 996.20 996.15 997.08 999.02 999.91 996.59 996.37 996.69 996.85 996.98 997.42 997.85 998.50 999.95 1001.39 1002.36 1003.49 1004.53 1005.67 1006.71 1008.06 1009.20 1010.12 1010.85 1011.19 1011.53 1011.88 1011.76 1011.52 1012.41 1012.78 1013.06 1014.01 1014.55 1015.18 1015.47 1015.54 1015.77 1016.18 1016.40 1016.69 1017.25 1017.56 1017.93 1018.07
995.98 996.51 996.46 996.20 995.97 996.08 997.74 998.24 997.11 996.49 996.44 996.44 996.48 997.08 997.27 997.86 998.65 999.74 1000.96 1002.08 1003.00 1003.99 1005.10 1006.14 1007.55 1008.56 1009.48 1010.22 1010.83 1011.12 1011.53 1011.84 1011.93 1012.09 1012.70 1013.43 1013.87 1014.17 1014.89 1015.39 1015.72 1015.92 1016.28 1016.28 1016.68 1017.16 1017.61 1018.00 1018.12
995.99 995.79 996.14 996.34 996.11 996.22 997.56 996.77 996.75 996.83 996.52 996.43 997.14 997.32 998.08 997.91 998.94 999.72 1000.52 1001.52 1002.36 1003.26 1004.46 1005.71 1007.01 1008.01 1008.82 1009.62 1010.31 1010.72 1011.16 1011.71 1012.01 1012.24 1012.83 1013.27 1013.60 1014.03 1014.75 1015.40 1015.70 1015.97 1016.42 1016.65 1017.03 1017.11 1017.48 1018.03 1018.23
995.99 995.73 995.23 995.03 995.38 995.65 996.53 997.56 997.33 997.28 996.93 996.70 997.15 997.45 996.48 997.60 998.99 999.76 1000.30 1001.03 1001.73 1002.53 1003.55 1004.72 1006.02 1007.29 1008.23 1008.97 1009.64 1010.22 1010.79 1011.30 1011.74 1011.97 1012.40 1012.92 1013.28 1013.85 1014.66 1015.24 1015.70 1015.97 1016.33 1016.76 1017.22 1017.58 1017.99 1018.31 1018.54
995.42 995.28 994.87 994.75 995.70 995.58 996.35 997.18 996.87 997.32 997.41 997.35 997.37 997.86 997.93 998.19 999.02 999.84 1000.40 1001.18 1001.71 1002.20 1003.00 1003.92 1005.02 1006.15 1007.36 1008.04 1008.73 1009.50 1010.17 1010.59 1011.14 1011.55 1012.02 1012.52 1013.10 1013.77 1014.57 1015.17 1015.63 1015.97 1016.40 1016.72 1017.06 1017.57 1018.10 1018.55 1018.88
Thickness
5857 5861 5859 5849 5796 5826 5807 5815 5830 5825 5824 5840 5837 5824 5811 5811 5806 5763 5797 5793 5791 5787 5781 5777 5775 5777 5776 5773 5774 5774 5774 5772 5770 5767 5769 5767 5767 5768 5768 5764 5764 5764 5761 5760 5757 5755 5754 5754 5752
5870 5873 5859 5842 5805 5809 5802 5825 5821 5831 5836 5843 5827 5825 5813 5795 5811 5800 5793 5795 5791 5787 5784 5779 5777 5778 5776 5775 5775 5774 5772 5769 5768 5768 5768 5768 5767 5770 5769 5762 5764 5766 5764 5761 5759 5757 5755 5755 5754
5871 5876 5837 5827 5836 5806 5799 5824 5828 5838 5848 5840 5826 5830 5814 5796 5809 5807 5803 5801 5795 5792 5787 5779 5779 5779 5776 5777 5776 5773 5769 5769 5769 5769 5766 5768 5768 5770 5771 5763 5764 5766 5764 5761 5760 5758 5756 5755 5757
5879 5869 5864 5846 5819 5830 5827 5831 5838 5834 5840 5843 5829 5806 5820 5829 5816 5813 5811 5806 5800 5793 5787 5780 5780 5779 5778 5777 5773 5773 5773 5770 5770 5770 5768 5770 5770 5770 5773 5763 5764 5765 5764 5763 5762 5759 5756 5756 5759
5883 5857 5852 5838 5828 5834 5843 5850 5848 5833 5836 5832 5827 5802 5806 5822 5825 5826 5819 5815 5805 5795 5785 5781 5782 5781 5778 5780 5778 5775 5773 5773 5770 5769 5771 5774 5768 5769 5773 5765 5765 5768 5767 5765 5764 5761 5758 5757 5758
5862 5860 5847 5827 5828 5842 5851 5853 5845 5834 5833 5826 5815 5811 5807 5823 5823 5828 5829 5818 5807 5796 5790 5786 5783 5780 5780 5780 5781 5774 5776 5776 5771 5773 5772 5775 5769 5771 5771 5769 5767 5767 5768 5767 5765 5763 5761 5759 5759
5819 5856 5848 5844 5830 5832 5842 5861 5843 5835 5825 5821 5831 5801 5811 5815 5826 5832 5831 5822 5817 5806 5795 5788 5785 5781 5780 5781 5781 5777 5775 5775 5774 5777 5775 5774 5772 5774 5772 5772 5771 5769 5770 5770 5767 5764 5763 5762 5762
5851 5874 5852 5854 5833 5826 5852 5855 5858 5843 5830 5852 5843 5802 5801 5819 5830 5835 5833 5827 5820 5809 5800 5793 5786 5785 5785 5781 5782 5781 5776 5777 5780 5782 5774 5775 5776 5775 5775 5775 5773 5771 5771 5771 5770 5768 5767 5766 5766
5868 5842 5843 5833 5843 5838 5862 5844 5856 5860 5844 5847 5846 5831 5830 5831 5834 5831 5827 5823 5813 5811 5806 5800 5794 5791 5791 5790 5786 5780 5777 5783 5785 5781 5776 5777 5779 5778 5777 5778 5775 5773 5773 5773 5772 5772 5770 5769 5769
5859 5859 5853 5872 5873 5856 5861 5855 5853 5848 5839 5838 5840 5840 5835 5832 5829 5825 5820 5814 5815 5810 5812 5812 5808 5804 5800 5794 5785 5784 5786 5787 5784 5784 5782 5781 5782 5782 5782 5781 5779 5778 5777 5776 5776 5776 5774 5773 5772
5902 5869 5884 5883 5886 5881 5868 5867 5876 5854 5838 5841 5830 5829 5828 5827 5825 5823 5821 5815 5814 5814 5816 5813 5807 5806 5804 5795 5793 5792 5793 5790 5788 5789 5786 5785 5787 5787 5787 5785 5782 5782 5771 5778 5779 5779 5772 5771 5766
5883 5899 5898 5887 5889 5884 5871 5880 5863 5863 5855 5861 5848 5841 5832 5825 5823 5824 5824 5820 5814 5812 5816 5815 5811 5808 5805 5800 5799 5798 5796 5792 5792 5791 5790 5789 5786 5790 5789 5789 5787 5789 5786 5784 5782 5783 5780 5774 5773
5890 5899 5905 5898 5891 5884 5884 5870 5862 5859 5867 5864 5852 5841 5833 5830 5829 5831 5833 5828 5820 5813 5816 5813 5810 5807 5803 5801 5801 5803 5798 5794 5795 5795 5794 5794 5793 5792 5792 5791 5790 5790 5788 5787 5787 5786 5785 5785 5785
5900 5889 5889 5887 5887 5882 5863 5857 5855 5862 5869 5856 5847 5840 5838 5836 5835 5833 5832 5826 5820 5818 5816 5817 5811 5804 5802 5800 5802 5802 5798 5798 5797 5796 5795 5796 5795 5794 5792 5792 5791 5789 5789 5787 5787 5786 5786 5787 5788
5886 5851 5845 5860 5836 5788 5866 5832 5839 5855 5864 5853 5846 5844 5842 5841 5842 5836 5836 5829 5825 5822 5820 5817 5813 5805 5801 5800 5799 5802 5801 5801 5801 5799 5799 5798 5797 5794 5792 5792 5792 5788 5789 5788 5788 5788 5786 5788 5790
5856 5836 5781 5840 5861 5778 5845 5780 5842 5859 5860 5851 5849 5847 5844 5844 5845 5844 5843 5836 5831 5825 5820 5818 5818 5810 5803 5802 5800 5803 5804 5802 5806 5804 5804 5799 5797 5793 5790 5790 5789 5790 5791 5792 5792 5789 5788 5785 5786
5852 5792 5819 5827 5869 5863 5864 5777 5836 5857 5866 5854 5852 5851 5848 5847 5848 5847 5847 5842 5835 5830 5824 5818 5818 5813 5806 5804 5803 5803 5806 5805 5807 5808 5806 5801 5797 5794 5792 5789 5787 5789 5792 5792 5791 5787 5786 5784 5783
5812 5792 5807 5834 5873 5888 5850 5812 5838 5868 5871 5861 5858 5855 5852 5850 5848 5850 5849 5848 5841 5834 5826 5821 5818 5817 5810 5805 5802 5802 5804 5805 5807 5805 5803 5798 5800 5796 5793 5790 5789 5789 5786 5787 5788 5785 5783 5782 5781
5884 5816 5788 5853 5882 5878 5877 5869 5870 5879 5878 5869 5865 5858 5855 5853 5858 5854 5851 5850 5843 5836 5827 5820 5816 5814 5810 5802 5798 5798 5799 5805 5808 5807 5803 5802 5803 5796 5792 5789 5789 5790 5786 5785 5784 5782 5780 5780 5782
5887 5879 5874 5846 5851 5876 5882 5879 5889 5874 5880 5881 5876 5869 5862 5858 5858 5856 5851 5850 5844 5835 5828 5822 5818 5814 5812 5809 5807 5808 5809 5811 5814 5812 5809 5806 5799 5794 5791 5789 5787 5786 5786 5783 5780 5778 5776 5777 5779
5880 5878 5876 5820 5805 5848 5865 5873 5863 5844 5863 5889 5890 5884 5876 5867 5860 5859 5854 5851 5849 5840 5833 5825 5822 5817 5814 5814 5813 5813 5815 5813 5801 5796 5800 5806 5803 5796 5790 5788 5785 5784 5783 5778 5777 5775 5774 5768 5774
5862 5899 5888 5856 5839 5831 5883 5839 5876 5859 5874 5880 5885 5889 5883 5876 5872 5870 5863 5855 5853 5847 5843 5835 5826 5821 5817 5816 5813 5811 5809 5791 5788 5784 5797 5797 5804 5798 5793 5788 5784 5780 5778 5776 5775 5773 5771 5771 5765
5868 5895 5887 5884 5862 5868 5875 5830 5864 5879 5872 5865 5887 5889 5893 5889 5884 5875 5871 5866 5862 5858 5850 5841 5832 5825 5821 5817 5816 5815 5812 5798 5790 5779 5797 5796 5802 5797 5791 5784 5783 5778 5776 5773 5772 5770 5768 5769 5766
5887 5873 5876 5875 5866 5835 5870 5855 5851 5852 5876 5884 5898 5898 5902 5899 5894 5887 5884 5879 5868 5865 5857 5848 5837 5829 5824 5820 5817 5813 5814 5807 5794 5777 5781 5795 5801 5793 5787 5784 5782 5777 5772 5771 5770 5768 5766 5764 5764
5867 5853 5825 5825 5827 5829 5873 5873 5870 5882 5901 5894 5892 5899 5905 5907 5900 5890 5881 5877 5870 5863 5857 5851 5842 5832 5829 5825 5820 5818 5816 5819 5804 5791 5790 5793 5794 5787 5783 5779 5774 5770 5767 5768 5767 5766 5764 5761 5760
5856 5856 5834 5802 5822 5844 5862 5805 5803 5899 5907 5901 5901 5902 5904 5904 5904 5892 5883 5878 5872 5866 5860 5855 5845 5838 5834 5828 5825 5823 5819 5818 5820 5810 5806 5802 5793 5788 5783 5776 5770 5764 5761 5764 5765 5765 5762 5760 5759
5862 5839 5876 5855 5869 5854 5830 5846 5878 5896 5892 5894 5893 5891 5892 5897 5897 5891 5886 5880 5875 5869 5862 5856 5846 5841 5837 5832 5827 5824 5822 5817 5815 5814 5807 5799 5797 5794 5786 5778 5771 5762 5759 5761 5764 5763 5761 5758 5758
5865 5887 5843 5850 5816 5817 5830 5843 5840 5862 5875 5887 5871 5874 5885 5890 5889 5889 5885 5882 5881 5876 5868 5859 5850 5842 5840 5835 5829 5826 5823 5819 5816 5812 5804 5800 5798 5796 5787 5779 5772 5766 5760 5759 5758 5759 5760 5755 5753
5851 5849 5867 5878 5867 5835 5819 5821 5870 5865 5878 5883 5882 5883 5878 5885 5885 5887 5888 5886 5884 5880 5874 5865 5855 5846 5841 5838 5834 5828 5824 5820 5817 5814 5810 5806 5804 5797 5787 5779 5773 5769 5765 5760 5756 5753 5751 5748 5746
5873 5863 5874 5848 5836 5862 5842 5828 5885 5880 5882 5883 5883 5883 5888 5891 5888 5888 5887 5886 5884 5881 5875 5869 5862 5855 5848 5844 5839 5833 5828 5825 5820 5816 5813 5810 5804 5798 5789 5782 5775 5771 5766 5763 5759 5753 5748 5743 5738